Simultaneous Nadir Overpasses (SNOs) Predictions

Prediction of SNOs between NOAA-21 and PACE Satellite Orbit:

Table of predicted SNOs for the next 14.0 days since TLE Epoch: 6/28/2024
Index Date (NOAA-21) Time (NOAA-21) Lat,Lon (NOAA-21) SZA (NOAA-21 ) Date (PACE) Time (PACE) Lat,Lon (PACE) SZA (PACE ) Distance(km) Time Diff (sec)
1 06/29/2024 00:34:16 79.72, 135.01 58.74 06/29/2024 00:34:15 79.72, 135.03 58.74 0.54 1
2 07/01/2024 04:10:04 -79.88,-100.45 120.81 07/01/2024 04:11:11 -79.88,-100.35 120.86 2.01 67
3 07/01/2024 05:00:42 79.66, 68.99 58.77 07/01/2024 05:00:15 79.66, 68.93 58.80 1.21 27
4 07/03/2024 08:36:31 -79.85,-166.76 120.69 07/03/2024 08:37:11 -79.84,-166.62 120.74 3.04 40
5 07/03/2024 09:27:08 79.59, 2.92 58.85 07/03/2024 09:26:14 79.59, 2.91 58.87 0.26 54
6 07/05/2024 13:02:56 -79.77, 127.46 120.64 07/05/2024 13:03:09 -79.76, 127.48 120.66 0.58 13
7 07/07/2024 17:29:21 -79.71, 61.34 120.50 07/07/2024 17:29:06 -79.71, 61.39 120.50 1.09 15
8 07/09/2024 21:05:09 79.87,-174.10 60.07 07/09/2024 21:06:00 79.87,-174.02 60.03 1.62 51
9 07/09/2024 21:55:45 -79.60, -4.27 120.43 07/09/2024 21:55:02 -79.60, -4.36 120.40 1.92 43
10 07/12/2024 01:31:34 79.80, 119.98 60.23 07/12/2024 01:31:56 79.79, 120.06 60.21 1.89 22



Historial Predications of SNOs between NOAA-21 and PACE
